Timeline UpdatesTrip UpdatesNews PostsPvt PostsTravel TipsAdmin PostsConv PostsFollowed PostsChat RequestsBlog PostsPNR Posts

Disclaimer
Search
 
 
Thu Apr 17, 2014 00:27:18 ISTHomeTrainsΣChainsAtlasPNRForumGalleryNewsFAQTripsMembersLoginFeedback
No Recent News for this Train
Other Trains in the News **new
Latest...
.
Fri Jun 22, 2012 (10:25PM)
⇐ Return Journey: Train# 54811

54812/Jodhpur-Bhopal Passenger

Feb 22 2014 (11:36PM)
Change Departure Station:
Change Arrival Station:
Post a Train Travel TipPost a Train Travel Tip **new
Post a Comment/Question/Picture/VideoPost a Comment/Question/Picture/Video
Pantry/Catering
✕ NO Pantry Car
✕ NO Catering
Loco/Rake Reversals
SWM/Sawai Madhopur Junction (4); KOTA/Kota Junction (5);
RSA - Rake Sharing
RSA with 54821/22 bhildi jodhpur passenger
Rake/Coach Composition
LOCO, SLR, GS, GS, GS, S-1, S-2, S-3, GS, GS, GS, GS, GS, GSLRD, STORE DELIVERY VAN
Loco
WDM 2A upto Bina, Bina to Bhopal: WAM 4
News    PNR    Forum    Time-Table    Availability    Fare Chart    Map    Arr/Dep History    Trips    Gallery    ΣChains    X/O    Timeline    
Travel Time: 3h 29m    11 halts    Distance: 113 km    Avg Speed: 32 km/hr
Type: Passenger
Zone: NWR/North Western
Departs @ 07:21 (Avg 1h 12m late)
Platform# ???
SMTWTFS
Kalhar/KAH 
Arrives @ 10:50 (Avg 23m late)
Platform# 5
SMTWTFS
Bhopal Junction/BPL 

11 halts. 17 intermediate Stations between Kalhar and Bhopal Junction

Show ALL intermediate Stations  Show Old Time-Table

#CodeStation NameX/OArrivesAvgDepartsAvgHaltPFDay#KmSpeedElevZoneAddress
1JUJodhpur Junction (5)  -08:05+1--1-880.828241mNWRJodhpur, Rajasthan
2RKBRaikabagh Palace Junction (2)X  08:10+908:12+202m--1-878.560237mNWRJodhpur, Rajasthan
3BNOBanar  08:24+2208:26+232m--1-866.655213mNWRBanar, Rajasthan
4JWLJajiwalX  08:35+2408:37+242m--1-858.367228mNWRJodhpur, Rajasthan
5AASAsranada  08:45+2508:47+262m--1-849.561251mNWRState Highway 58, Rajasthan
6KSWKheri Salwa  08:56+2608:58+262m--1-840.464269mNWRJajiwal, Rajasthan
7PPRPipar Road Junction  09:04+2709:06+292m--1-833.957272mNWRState Highway 58, Rajasthan
8SWFSathin Road  09:15+2909:17+332m--1-825.362284mNWRUMED, Rajasthan
9UMEDUmedX  09:27+3409:29+362m--1-815.056308mNWRJodhpur, Rajasthan
10KXGKharia Khangarh  09:40+3509:42+372m--1-804.854310mNWRKharia Khangar, Rajasthan
11GOTNGotan  09:50+3709:52+392m--1-797.759323mNWRGotan, Rajasthan
12JOMJogi Magra (1)X  10:02+4010:04+452m11-787.924335mNWRNagaur, Rajasthan
13MTDMerta Road Junction (4)  10:30+2910:35+335m--1-777.5116322mNWRPhalodi, Rajasthan
14KQWKheduli  10:43+3610:45+352m--1-762.117307mNWRRen, Rajasthan
15RENRen  10:52+3710:54+372m--1-760.163307mNWRNagaur, Rajasthan
16JACJalsu  11:07+3711:09+372m--1-746.448321mNWRNagaur, Rajasthan
17JACNJalsu Nanak  11:16+3411:18+342m--1-740.849331mNWRREN, Rajasthan
18DNADegana Junction (4)  11:27+3411:30+363m--1-733.582339mNWRDegana, Rajasthan
19GCHGachhipura  11:41+3811:43+392m--1-718.468362mNWRNagaur, Rajasthan
20BSRLBesroli  11:53+4011:55+442m--1-707.171378mNWRNagaur, Rajasthan
21BOWBorawar  12:05+4412:07+482m--1-695.239403mNWRBesrol, Rajasthan
22MKNMakrana Junction (2)  12:15+4812:17+502m--1-690.057423mNWRMakrana, Rajasthan
23KMNCKuchaman CityX  12:32+4912:34+512m--1-675.941404mNWRPalari, Rajasthan
24THMRThathana Mithri  12:41+5012:43+502m--1-671.151388mNWRNawa City, Rajasthan
25NYKNaya KharadiaX  12:48+5012:50+542m--1-666.836375mNWRMakrana, Rajasthan
26NACNawa City  13:01+5113:03+542m--1-660.250390mNWRNawa, Rajasthan
27GVMRGovindi Marwar  13:14+5313:16+562m--1-651.064373mNWRSambhar Lake, Rajasthan
28GAGudha (1)X  13:26+5613:28+1:032m11-640.346365mNWRPhulera, Rajasthan
29SBRSambhar LakeO  13:38+1:0413:40+1:062m--1-632.65368mNWRSambhar, Rajasthan
30FLPhulera Junction (5)X  15:00+815:05+175m--1-625.574386mNWRPhulera, Rajasthan
31HDAHirnodaX  15:12+2115:13+251m--1-616.840400mNWRJaipur, Rajasthan
32DHNDDhinda  15:19+2315:20+231m--1-612.848386mNWRMDR 59, Rajasthan
33JOBAsalpur JobnerX  15:27+2315:28+251m--1-607.156379mNWRJaipur, Rajasthan
34BOBSBobas  15:36+2515:37+311m--1-599.752396mNWRJaipur, Rajasthan
35SHNXSheo Singh PuraX  15:45+3115:46+301m--1-592.838411mNWRJaipur, Rajasthan
36DNKDhanakya  15:52+3115:53+321m--1-589.046418mNWRJaipur, Rajasthan
37BDYKBindayaka  15:59+3316:00+331m--1-584.452411mNWRJaipur, Rajasthan
38KKUKanakpuraXO  16:06+3416:07+381m--1-579.214429mNWRJaipur, Rajasthan
39JPJaipur Junction (7)XO  16:45+1517:45+760m41-570.449434mNWRJaipur, Rajasthan
40DPADurgapura (3)  17:54+1317:55+151m11-563.033400mNWRJaipur, Rajasthan
41SNGNSanganer  18:04+1418:05+171m11-558.166383mNWRJaipur, Rajasthan
42SASShivdaspura Padampura  18:20+1818:21+181m11-541.575335mNWRJaipur, Rajasthan
43CKSChaksuX  18:32+2218:33+221m--1-527.748319mNWRDist. Jaipur, Rajasthan
44CHNNChannani  18:46+2018:47+201m--1-517.271326mNWRChaksu, Rajasthan
45BNLWBansthali Niwai (2)  18:58+2118:59+221m--1-504.368315mNWRMaharajpura, Rajasthan
46SRASSiras  19:13+2119:14+211m--1-488.561270mNWRIsarda, Rajasthan
47ISAIsarda  19:24+2119:25+211m--1-478.457271mNWRMDR 111, Rajasthan
48SURLSureli  19:34+2119:35+201m--1-469.861258mNWRDevpura, Rajasthan
49CKBChauth ka Barwara (1)X  19:44+2119:45+211m11-460.626272mNWRSawai Madhopur, Rajasthan
50DPZDevpura (1)  20:11+920:12+111m11-449.550271mNWRSawai Madhopur, Rajasthan
51SWMSawai Madhopur Junction (4)O↵¶20:25+3020:40+4615m31-438.753266mWCRSawai Madhopur, Rajasthan
52RWJRawania DungarX  20:59+4521:00+481m--1-421.851266mWCRSawai Madhopur, Rajasthan
53AMLIAmli  21:09+4721:10+491m--1-414.287233mWCRSawai Madhopur, Rajasthan
54IDGIndargarh Sumerganj Mandi (2)  21:19+5221:20+551m--1-401.173247mWCRIndargarh, Rajasthan
55LKELakheri (3)  21:29+5621:30+571m--1-390.167228mWCRBundi, Rajasthan
56KPZKaprenX  21:54+5521:55+571m--1-363.267234mWCRKota - Lalsot Mega Highway, Rajasthan
57KPTNKeshorai PatanO  22:13+5622:14+591m--1-343.026243mWCRSH 33, Rajasthan
58KOTAKota Junction (5)X22:45+5622:55+1:0910m41-329.562256mWCRKota, Rajasthan
59ATHAntah  23:38+1:0923:40+1:092m--1-284.834246mWCRAntah, Rajasthan
60BAZBaran  00:18+5200:20+542m--2-263.243261mWCRBaran, Rajasthan
61ATRUAtru (1)  01:01+4201:03+452m12-234.060288mWCRAtru, Rajasthan
62SYLSalpura  01:17+4201:18+441m--2-220.071311mWCRKawari, Rajasthan
63CAGChhabra Gugor  01:31+4001:33+392m--2-204.532342mWCRBaran, Rajasthan
64RTARuthiyai Junction (2)  02:45+3202:50+435m--2-165.954414mWCRRuthiyai, Madhya Pradesh
65MUGAMahugara  03:05+4203:07+492m--2-152.425501mWCRRuthiyai, Madhya Pradesh
66GUNAGuna Junction (3)X  03:25+4303:35+4710m--2-145.037477mWCRJn Point Indore/Gwalior/Bina/Kota, Madhya Pradesh
67PGAPagaraX  03:57+4503:59+462m--2-131.546494mWCRGuna, Madhya Pradesh
68SHDRShadhoragaon  04:19+4504:21+462m--2-116.161504mWCRGuna, Madhya Pradesh
69RIKARatikheda  04:29+4704:31+502m--2-108.048526mWCRGuna, Madhya Pradesh
70ASKNAshok Nagar (2)  04:40+5104:42+552m--2-100.854502mWCRAshoknagar, Madhya Pradesh
71ORROrr  04:56+5904:58+1:002m--2-88.141450mWCRAshoknagar, Madhya Pradesh
72PIAPipraigaon (3)X  05:18+5705:20+592m22-74.450451mWCRAshoknagar, Madhya Pradesh
73GVBGuneru Bamori (2)  05:33+5705:35+1:002m--2-63.563427mWCRAshoknagar, Madhya Pradesh
74MNVMungaoli (2)  05:43+1:0105:45+1:022m--2-55.148403mWCRAshoknagar, Madhya Pradesh
75KXBKanjiyaX  05:55+1:0105:57+1:022m--2-47.182390mWCRMungaoli, Madhya Pradesh
76SRKISemarkheri  06:03+1:0406:05+1:052m--2-38.938412mWCRBina, Madhya Pradesh
77MDVKMahadeokhedi  06:13+1:0406:15+1:142m--2-33.819423mWCRBina, Madhya Pradesh
78BINABina Junction (5)  06:40+1:0406:50+1:0210m22-26.170414mWCRJn Pt - KATNI/GUNA/ BPL/JHS, Madhya Pradesh
79KIKAKurwai Kethora (2)XO  06:58+1:0807:00+1:112m--2-16.853407mWCRBina, Madhya Pradesh
80MABAMandi Bamora (3)X  07:09+1:1007:11+1:112m22-8.866413mWCRState Highway 14, Madhya Pradesh
81KAH»Kalhar (3)»X  07:19+1:1107:21+1:122m--20.066409mWCRSagar, Madhya Pradesh
82BETBareth (4)  07:30+1:1407:32+1:132m--29.825418mWCRState Highway 19, Madhya Pradesh
83BAQGanj Basoda (4)X  07:56+1:0607:58+1:062m2219.766416mWCRVidisha, Madhya Pradesh
84PAIPabai (3)XO  08:06+1:0808:08+1:082m--228.472425mWCRVidisha, Madhya Pradesh
85GLGGulabhGanj (3)XO  08:16+1:0908:18+1:092m2238.056432mWCRVidisha, Madhya Pradesh
86SUMRSumer (3)XO  08:26+1:0808:28+1:072m--245.520417mWCRVidisha, Madhya Pradesh
87BHSVidisha (3)X  09:09+5309:11+532m2259.047432mWCRVidisha, Madhya Pradesh
88SCISanchi (2)X  09:23+5109:25+512m1268.455428mWCRRaisen, Madhya Pradesh
89SMTSalamatpur (3)  09:33+5109:35+502m1275.769437mWCRRaisen, Madhya Pradesh
90DWGDewanGanj (3)X  09:43+5109:45+502m2285.048444mWCRRaisen, Madhya Pradesh
91BVBBhadbhadaghat (1)X  09:56+4909:58+482m1293.845474mWCRBhopal, Madhya Pradesh
92SUWSukhisewaniyan (3)X  10:08+2910:10+292m22101.217508mWCRBhopal, Madhya Pradesh
93BPL•Bhopal Junction (6)•  10:50+23-52112.5-497mWCRBhopal, Madhya Pradesh
Scroll to Top
Scroll to Bottom